This is the latest recevied weather packets stored in our database for station/object WC4PEM-7. If no packets are shown the sender has not sent any weather packets the latest 10 day(s).
| Time | Temp. | Humidity | Pressure | Rain* | Wind** | Luminosity | Snow |
|---|---|---|---|---|---|---|---|
| 1778081908 | 29.44° C | 63% | 1017 hPa | 0 mm | - | - | - |
| 1778081608 | 28.89° C | 66% | 1017.2 hPa | 0 mm | - | - | - |
| 1778081308 | 28.89° C | 66% | 1017.3 hPa | 0 mm | - | - | - |
| 1778081008 | 28.89° C | 66% | 1017.2 hPa | 0 mm | - | - | - |
| 1778080708 | 28.89° C | 65% | 1017.1 hPa | 0 mm | - | - | - |
| 1778080408 | 29.44° C | 63% | 1017 hPa | 0 mm | - | - | - |
| 1778080108 | 28.89° C | 66% | 1017.1 hPa | 0 mm | - | - | - |
| 1778079808 | 28.33° C | 66% | 1016.9 hPa | 0 mm | - | - | - |
| 1778079508 | 28.33° C | 66% | 1016.9 hPa | 0 mm | - | - | - |
| 1778079208 | 27.78° C | 67% | 1016.8 hPa | 0 mm | - | - | - |
| 1778078908 | 27.78° C | 67% | 1016.9 hPa | 0 mm | - | - | - |
| 1778078757 | 27.78° C | 70% | 1017 hPa | 0 mm | - | - | - |
| 1778078608 | 27.78° C | 70% | 1017 hPa | 0 mm | - | - | - |
| 1778078308 | 27.78° C | 69% | 1017 hPa | 0 mm | - | - | - |
| 1778078102 | 27.78° C | 70% | 1017.3 hPa | 0 mm | - | - | - |
| 1778078052 | 27.78° C | 70% | 1017.3 hPa | 0 mm | - | - | - |
| 1778078008 | 27.78° C | 70% | 1017.3 hPa | 0 mm | - | - | - |
| 1778077708 | 27.22° C | 71% | 1017.3 hPa | 0 mm | - | - | - |
| 1778077408 | 27.22° C | 72% | 1017.4 hPa | 0 mm | - | - | - |
| 1778077250 | 27.22° C | 71% | 1017.4 hPa | 0 mm | - | - | - |
| 1778077108 | 27.22° C | 71% | 1017.4 hPa | 0 mm | - | - | - |
| 1778076808 | 27.22° C | 72% | 1017.3 hPa | 0 mm | - | - | - |
| 1778076508 | 27.22° C | 75% | 1017.4 hPa | 0 mm | - | - | - |
| 1778076461 | 26.67° C | 77% | 1017.3 hPa | 0 mm | - | - | - |
| 1778076208 | 26.67° C | 77% | 1017.3 hPa | 0 mm | - | - | - |
* Rain latest hour (hover to see other rain measurements)
** Current wind speed in m/s (hover to see current wind gust speed)